Location: Czernica
(51.0462°N, 17.2458°E)
Time: 12:04:06
(UTC+01:00)

ISS - Pass Details

Date: 01 February 2019
Orbit: 403 x 411 km, 51.6° (Epoch: 23 February)

Event Time Altitude Azimuth Distance (km) Brightness Sun altitude
Rises 17:17:29 0° 261° (W) 2,331 2.2 -6.0°
Reaches altitude 10° 17:19:34 10° 262° (W) 1,473 0.7 -6.4°
Maximum altitude 17:22:52 86° 353° (N) 416 -3.8 -6.8°
Drops below altitude 10° 17:26:12 10° 81° (E) 1,480 -1.6 -7.3°
Enters shadow 17:26:17 10° 81° (E) 1,515 -1.6 -7.4°
